M I D A S
Marine Information and Data Acquisition System
Tripno 1679 of the Zeeleeuw from 2009-04-22 07:15:18 to 2009-04-22 11:59:43
Back to CruiseResearch ActivitiesStationsMapUnderway DataData graphs

EquipmentUnitsComments
TimeDGPSUTC
LatitudeDGPSDM.mWGS84
LongitudeDGPSDM.mWGS84
SpeedMeteo Stationm/sRelative wind speed
DirectionMeteo StationdegRelative wind direction
TemperatureMeteo Stationdeg CelciusAir temperature
PressureMeteo StationPaAtmospheric pressure
HumidityMeteo Station%Relative humidity
Missing or incorrect values are displayed as -999
Metereological data collected by the RV Zeeleeuw from 2009-04-22 07:07:40 to 2009-04-22 12:13:01
Time Latitude Longitude Speed Direction Temperature Pressure Humidity
2009-04-22 07:08 51°13.679 2°55.895 3 26 10.2 102610 96
2009-04-22 07:09 51°13.694 2°55.807 2.3 262 10.1 102610 95
2009-04-22 07:10 51°13.704 2°55.749 2 262 10 102610 95
2009-04-22 07:11 51°13.71 2°55.751 3.1 319 10.1 102610 95
2009-04-22 07:12 51°13.709 2°55.737 3.8 336 10 102610 95
2009-04-22 07:13 51°13.762 2°55.691 6.3 346 9.9 102600 94
2009-04-22 07:14 51°13.862 2°55.604 7.7 344 9.7 102600 95
2009-04-22 07:15 51°13.982 2°55.519 6.6 340 9.7 102600 96
2009-04-22 07:16 51°14.107 2°55.426 5.9 341 9.6 102600 96
2009-04-22 07:17 51°14.228 2°55.304 5.6 346 9.5 102610 97
2009-04-22 07:18 51°14.324 2°55.136 5.8 348 9.5 102610 97
2009-04-22 07:19 51°14.415 2°54.942 6.2 345 9.4 102610 98
2009-04-22 07:20 51°14.533 2°54.759 7.2 342 9.4 102600 98
2009-04-22 07:21 51°14.667 2°54.602 8.2 339 9.4 102610 99
2009-04-22 07:22 51°14.814 2°54.484 8.5 344 9.5 102610 99
2009-04-22 07:23 51°14.955 2°54.348 8.8 342 9.5 102600 99
2009-04-22 07:24 51°15.105 2°54.189 8.5 343 9.7 102600 99
2009-04-22 07:25 51°15.202 2°54.089 6.5 344 9.7 102600 98
2009-04-22 07:26 51°15.267 2°54.018 4.8 349 9.7 102610 97
2009-04-22 07:27 51°15.305 2°53.928 3.4 9 9.8 102610 97
2009-04-22 07:28 51°15.259 2°53.83 0.5 25 9.8 102610 97
2009-04-22 07:29 51°15.12 2°53.816 3.3 24 9.9 102610 97
2009-04-22 07:30 51°14.935 2°53.858 3.6 23 10 102610 95
2009-04-22 07:31 51°14.747 2°53.946 3.3 28 10.1 102600 94
2009-04-22 07:32 51°14.543 2°53.976 2 321 10.2 102610 94
2009-04-22 07:33 51°14.355 2°53.837 3.1 344 10.2 102610 93
2009-04-22 07:34 51°14.213 2°53.603 4 351 10.1 102610 92
2009-04-22 07:35 51°14.088 2°53.329 4.9 348 10 102610 92
2009-04-22 07:36 51°13.965 2°53.064 3.4 354 10 102610 92
2009-04-22 07:37 51°13.836 2°52.799 4.5 353 9.9 102610 93
2009-04-22 07:38 51°13.704 2°52.537 4.2 352 9.9 102610 93
2009-04-22 07:39 51°13.574 2°52.283 3.5 1 9.9 102610 93
2009-04-22 07:40 51°13.481 2°52.053 3.5 1 9.9 102610 93
2009-04-22 07:41 51°13.416 2°51.845 3.4 5 9.9 102610 94
2009-04-22 07:42 51°13.358 2°51.654 4.1 12 9.9 102610 95
2009-04-22 07:43 51°13.308 2°51.497 3.5 20 10 102610 95
2009-04-22 07:44 51°13.266 2°51.368 3.6 26 10 102610 95
2009-04-22 07:45 51°13.241 2°51.284 4.4 25 10 102610 95
2009-04-22 07:46 51°13.23 2°51.262 4.7 30 10.1 102600 94
2009-04-22 07:47 51°13.217 2°51.248 4.5 32 10.1 102610 94
2009-04-22 07:48 51°13.204 2°51.236 4.1 31 10.1 102600 95
2009-04-22 07:49 51°13.192 2°51.224 4.2 33 10.1 102610 94
2009-04-22 07:50 51°13.179 2°51.213 4.3 30 10.1 102610 94
2009-04-22 07:51 51°13.166 2°51.202 4.9 35 10.1 102610 94
2009-04-22 07:52 51°13.153 2°51.19 4.6 34 10.1 102610 94
2009-04-22 07:53 51°13.14 2°51.178 4.1 28 10.1 102610 94
2009-04-22 07:54 51°13.128 2°51.167 4.8 29 10.1 102610 94
2009-04-22 07:55 51°13.116 2°51.155 4.3 29 10.1 102610 94
2009-04-22 07:56 51°13.105 2°51.145 4.3 30 10.1 102610 93
2009-04-22 07:57 51°13.094 2°51.135 4.3 29 10.2 102610 94
2009-04-22 07:58 51°13.084 2°51.126 3.9 30 10.2 102610 94
2009-04-22 07:59 51°13.074 2°51.117 3.9 27 10.3 102610 94
2009-04-22 08:00 51°13.064 2°51.108 4.2 26 10.2 102610 94
2009-04-22 08:01 51°13.054 2°51.1 4.3 27 10.2 102610 93
2009-04-22 08:02 51°13.044 2°51.093 4.3 30 10.3 102610 93
2009-04-22 08:03 51°13.033 2°51.081 4.1 28 10.2 102600 93
2009-04-22 08:04 51°12.992 2°51.01 1.7 45 10.3 102610 93
2009-04-22 08:05 51°12.93 2°50.96 2.4 43 10.3 102610 93
2009-04-22 08:06 51°12.884 2°50.892 2.7 33 10.3 102610 93
2009-04-22 08:07 51°12.852 2°50.814 3.4 31 10.2 102610 93
2009-04-22 08:08 51°12.827 2°50.734 3.9 26 10.2 102620 93
2009-04-22 08:09 51°12.8 2°50.654 2.9 34 10.2 102620 93
2009-04-22 08:10 51°12.764 2°50.57 2.8 32 10.2 102620 93
2009-04-22 08:11 51°12.723 2°50.483 3.1 33 10.3 102620 93
2009-04-22 08:12 51°12.685 2°50.404 3.3 33 10.3 102620 94
2009-04-22 08:13 51°12.65 2°50.328 3.3 30 10.3 102620 93
2009-04-22 08:14 51°12.614 2°50.253 3.4 34 10.2 102620 93
2009-04-22 08:15 51°12.578 2°50.179 3.1 32 10.3 102620 93
2009-04-22 08:16 51°12.539 2°50.111 3.3 35 10.2 102610 93
2009-04-22 08:17 51°12.498 2°50.045 3.1 37 10.3 102610 94
2009-04-22 08:18 51°12.458 2°49.975 3.1 32 10.2 102610 94
2009-04-22 08:19 51°12.419 2°49.906 3.8 35 10.2 102610 93
2009-04-22 08:20 51°12.379 2°49.84 3.2 33 10.2 102610 93
2009-04-22 08:21 51°12.347 2°49.768 3.6 33 10.2 102610 93
2009-04-22 08:22 51°12.315 2°49.693 4.2 33 10.2 102610 94
2009-04-22 08:23 51°12.282 2°49.622 3.3 35 10.2 102610 94
2009-04-22 08:24 51°12.247 2°49.55 3.4 31 10.2 102610 93
2009-04-22 08:25 51°12.212 2°49.479 3.3 33 10.2 102610 94
2009-04-22 08:26 51°12.177 2°49.408 3 34 10.2 102620 93
2009-04-22 08:27 51°12.141 2°49.335 3.5 30 10.2 102610 93
2009-04-22 08:28 51°12.106 2°49.26 3.7 33 10.2 102620 93
2009-04-22 08:29 51°12.071 2°49.181 3.3 34 10.2 102620 94
2009-04-22 08:30 51°12.036 2°49.103 3.1 35 10.2 102610 94
2009-04-22 08:31 51°12 2°49.025 3.1 35 10.2 102610 94
2009-04-22 08:32 51°11.964 2°48.948 2.9 33 10.3 102620 93
2009-04-22 08:33 51°11.93 2°48.87 2.9 35 10.3 102610 94
2009-04-22 08:34 51°11.894 2°48.793 2.6 35 10.3 102620 94
2009-04-22 08:35 51°11.862 2°48.713 3.7 33 10.3 102620 93
2009-04-22 08:36 51°11.832 2°48.628 3.3 30 10.3 102620 93
2009-04-22 08:37 51°11.802 2°48.548 3.8 32 10.3 102620 93
2009-04-22 08:38 51°11.774 2°48.465 3.7 27 10.3 102620 93
2009-04-22 08:39 51°11.759 2°48.383 4.1 24 10.2 102610 93
2009-04-22 08:40 51°11.753 2°48.305 4.6 20 10.3 102620 94
2009-04-22 08:41 51°11.757 2°48.227 5.1 15 10.2 102610 93
2009-04-22 08:42 51°11.773 2°48.175 5.7 8 10.2 102610 93
2009-04-22 08:43 51°11.788 2°48.149 5 8 10.2 102610 94
2009-04-22 08:44 51°11.8 2°48.136 5.7 8 10.2 102610 94
2009-04-22 08:45 51°11.809 2°48.13 5.2 12 10.1 102620 94
2009-04-22 08:46 51°11.817 2°48.127 5.6 12 10.1 102610 94
2009-04-22 08:47 51°11.836 2°48.117 5.2 352 10.1 102620 94
2009-04-22 08:48 51°11.871 2°48.128 5 340 10.2 102620 95
2009-04-22 08:49 51°11.914 2°48.16 5.1 333 10.2 102620 95
2009-04-22 08:50 51°11.96 2°48.205 4.5 325 10.3 102620 95
2009-04-22 08:51 51°11.993 2°48.27 5.2 316 10.4 102620 95
2009-04-22 08:52 51°12.012 2°48.329 4.4 31 10.4 102620 93
2009-04-22 08:53 51°12.026 2°48.379 5.5 38 10.5 102620 93
2009-04-22 08:54 51°12.039 2°48.424 5.8 32 10.5 102620 93
2009-04-22 08:55 51°12.048 2°48.464 5.7 37 10.5 102620 93
2009-04-22 08:56 51°12.056 2°48.501 4.7 36 10.5 102620 92
2009-04-22 08:57 51°12.063 2°48.536 5.5 27 10.5 102620 92
2009-04-22 08:58 51°12.069 2°48.569 5.3 32 10.6 102630 92
2009-04-22 08:59 51°12.074 2°48.602 5 236 10.6 102620 93
2009-04-22 09:00 51°12.08 2°48.634 5.3 32 10.6 102630 93
2009-04-22 09:01 51°12.085 2°48.667 5.4 38 10.6 102630 92
2009-04-22 09:02 51°12.09 2°48.699 5.2 36 10.6 102630 91
2009-04-22 09:03 51°12.094 2°48.731 5.4 236 10.6 102630 91
2009-04-22 09:04 51°12.098 2°48.762 4.1 236 10.7 102630 92
2009-04-22 09:05 51°12.103 2°48.794 4.1 239 10.7 102620 92
2009-04-22 09:06 51°12.108 2°48.828 3.7 239 10.8 102620 92
2009-04-22 09:07 51°12.114 2°48.862 3.9 31 10.9 102620 92
2009-04-22 09:08 51°12.12 2°48.895 4.3 36 10.9 102620 91
2009-04-22 09:09 51°12.126 2°48.929 4.8 237 10.9 102630 91
2009-04-22 09:10 51°12.132 2°48.964 4.1 32 10.9 102620 90
2009-04-22 09:11 51°12.138 2°48.997 5 235 10.9 102620 90
2009-04-22 09:12 51°12.144 2°49.03 4.7 36 10.8 102620 90
2009-04-22 09:13 51°12.151 2°49.064 4.2 34 10.8 102620 90
2009-04-22 09:14 51°12.157 2°49.097 4.4 38 10.8 102620 90
2009-04-22 09:15 51°12.164 2°49.128 4.6 235 10.8 102620 90
2009-04-22 09:16 51°12.17 2°49.161 5.1 33 10.7 102620 90
2009-04-22 09:17 51°12.176 2°49.194 5.3 237 10.8 102620 90
2009-04-22 09:18 51°12.182 2°49.227 4.4 32 10.7 102620 91
2009-04-22 09:19 51°12.188 2°49.26 5.1 33 10.8 102620 91
2009-04-22 09:20 51°12.194 2°49.293 4.5 236 10.8 102620 90
2009-04-22 09:21 51°12.2 2°49.326 5.4 235 10.8 102610 90
2009-04-22 09:22 51°12.206 2°49.361 3.5 31 10.8 102620 90
2009-04-22 09:23 51°12.212 2°49.395 4.4 236 10.8 102620 91
2009-04-22 09:24 51°12.217 2°49.428 4.6 35 10.9 102620 91
2009-04-22 09:25 51°12.224 2°49.463 3.8 237 10.8 102620 90
2009-04-22 09:26 51°12.23 2°49.498 4 241 10.9 102620 90
2009-04-22 09:27 51°12.236 2°49.533 3.3 26 10.9 102620 90
2009-04-22 09:28 51°12.243 2°49.567 4.4 236 10.9 102620 90
2009-04-22 09:29 51°12.25 2°49.603 4.9 235 10.9 102620 90
2009-04-22 09:30 51°12.256 2°49.638 3.7 34 10.9 102620 90
2009-04-22 09:31 51°12.263 2°49.672 4 28 10.9 102620 89
2009-04-22 09:32 51°12.27 2°49.707 3.8 236 10.9 102620 89
2009-04-22 09:33 51°12.277 2°49.742 4.7 36 10.9 102620 89
2009-04-22 09:34 51°12.285 2°49.778 4.2 34 10.9 102620 90
2009-04-22 09:35 51°12.293 2°49.815 5.2 26 10.9 102620 89
2009-04-22 09:36 51°12.308 2°49.864 4.2 323 10.9 102620 89
2009-04-22 09:37 51°12.331 2°49.91 4.9 337 10.8 102620 89
2009-04-22 09:38 51°12.361 2°49.942 4.2 353 10.7 102620 88
2009-04-22 09:39 51°12.389 2°49.957 4.5 356 10.5 102620 91
2009-04-22 09:40 51°12.415 2°49.964 4 3 10.3 102620 92
2009-04-22 09:41 51°12.44 2°49.965 5.1 7 10.2 102620 93
2009-04-22 09:42 51°12.465 2°49.964 4.6 8 10.1 102620 93
2009-04-22 09:43 51°12.489 2°49.961 5.4 9 10.1 102610 94
2009-04-22 09:44 51°12.518 2°49.952 4.7 7 10.1 102610 94
2009-04-22 09:45 51°12.551 2°49.941 4.5 7 10.1 102610 94
2009-04-22 09:46 51°12.58 2°49.908 4.9 19 10.2 102610 94
2009-04-22 09:47 51°12.593 2°49.882 4 27 10.2 102620 95
2009-04-22 09:48 51°12.604 2°49.863 4 24 10.3 102620 94
2009-04-22 09:49 51°12.616 2°49.848 4.3 24 10.3 102620 94
2009-04-22 09:50 51°12.63 2°49.838 4.7 18 10.2 102610 94
2009-04-22 09:51 51°12.646 2°49.833 4.7 19 10.2 102610 94
2009-04-22 09:52 51°12.664 2°49.829 5.6 13 10.2 102610 94
2009-04-22 09:53 51°12.682 2°49.827 4.8 21 10.2 102610 94
2009-04-22 09:54 51°12.702 2°49.827 4.5 17 10.2 102610 93
2009-04-22 09:55 51°12.723 2°49.828 4.1 16 10.2 102610 93
2009-04-22 09:56 51°12.744 2°49.836 3.7 8 10.3 102610 94
2009-04-22 09:57 51°12.763 2°49.85 3.6 6 10.3 102610 94
2009-04-22 09:58 51°12.78 2°49.868 3.9 6 10.2 102610 93
2009-04-22 09:59 51°12.798 2°49.888 3.8 4 10.2 102610 94
2009-04-22 10:00 51°12.813 2°49.911 3.5 359 10.1 102620 94
2009-04-22 10:01 51°12.828 2°49.935 3.8 360 10 102610 94
2009-04-22 10:02 51°12.842 2°49.96 3.8 1 10 102610 94
2009-04-22 10:03 51°12.855 2°49.986 4 7 10 102620 95
2009-04-22 10:04 51°12.867 2°50.012 3.7 12 10.1 102610 95
2009-04-22 10:05 51°12.877 2°50.04 3.6 12 10.1 102620 95
2009-04-22 10:06 51°12.887 2°50.067 3.8 13 10.1 102620 95
2009-04-22 10:07 51°12.897 2°50.095 3.7 14 10.2 102620 95
2009-04-22 10:08 51°12.906 2°50.124 4 24 10.3 102610 95
2009-04-22 10:09 51°12.914 2°50.154 3.3 26 10.2 102610 94
2009-04-22 10:10 51°12.923 2°50.185 3.5 30 10.3 102610 93
2009-04-22 10:11 51°12.93 2°50.217 3.5 26 10.3 102610 93
2009-04-22 10:12 51°12.938 2°50.248 3.4 26 10.3 102610 93
2009-04-22 10:13 51°12.946 2°50.28 4.2 25 10.4 102610 93
2009-04-22 10:14 51°12.954 2°50.314 3.7 31 10.3 102610 93
2009-04-22 10:15 51°12.962 2°50.347 4 31 10.3 102610 93
2009-04-22 10:16 51°12.97 2°50.381 3.5 30 10.3 102610 93
2009-04-22 10:17 51°12.978 2°50.414 3.7 33 10.3 102610 93
2009-04-22 10:18 51°12.986 2°50.447 3.5 29 10.3 102610 93
2009-04-22 10:19 51°12.994 2°50.479 3.8 35 10.3 102610 93
2009-04-22 10:20 51°13.002 2°50.512 3.2 34 10.3 102610 93
2009-04-22 10:21 51°13.01 2°50.544 3.2 32 10.3 102610 93
2009-04-22 10:22 51°13.017 2°50.577 3.7 31 10.3 102610 94
2009-04-22 10:23 51°13.025 2°50.611 4 29 10.3 102600 93
2009-04-22 10:24 51°13.034 2°50.644 3.5 32 10.3 102610 94
2009-04-22 10:25 51°13.041 2°50.677 3.6 30 10.3 102610 94
2009-04-22 10:26 51°13.05 2°50.711 3.7 33 10.3 102610 93
2009-04-22 10:27 51°13.058 2°50.744 3.8 28 10.3 102610 93
2009-04-22 10:28 51°13.066 2°50.777 3.3 31 10.3 102610 94
2009-04-22 10:29 51°13.075 2°50.81 3.5 32 10.3 102610 94
2009-04-22 10:30 51°13.083 2°50.841 3.9 29 10.3 102610 94
2009-04-22 10:31 51°13.091 2°50.874 3.6 25 10.3 102610 93
2009-04-22 10:32 51°13.1 2°50.907 4.1 24 10.3 102610 94
2009-04-22 10:33 51°13.108 2°50.941 3.5 32 10.3 102610 94
2009-04-22 10:34 51°13.116 2°50.975 3.5 32 10.3 102610 93
2009-04-22 10:35 51°13.124 2°51.009 3.5 29 10.3 102610 94
2009-04-22 10:36 51°13.132 2°51.042 3.8 29 10.3 102610 94
2009-04-22 10:37 51°13.141 2°51.077 3.2 25 10.3 102610 94
2009-04-22 10:38 51°13.149 2°51.11 3.6 32 10.3 102610 94
2009-04-22 10:39 51°13.157 2°51.145 3.4 33 10.3 102610 94
2009-04-22 10:40 51°13.165 2°51.178 3.4 33 10.3 102610 94
2009-04-22 10:41 51°13.174 2°51.211 3.2 31 10.3 102610 94
2009-04-22 10:42 51°13.183 2°51.244 3.3 28 10.3 102620 94
2009-04-22 10:43 51°13.192 2°51.276 3.4 29 10.3 102610 94
2009-04-22 10:44 51°13.201 2°51.309 4.2 26 10.3 102620 94
2009-04-22 10:45 51°13.209 2°51.341 3.4 30 10.3 102620 94
2009-04-22 10:46 51°13.218 2°51.375 3.2 28 10.3 102610 94
2009-04-22 10:47 51°13.227 2°51.41 3.1 29 10.3 102610 94
2009-04-22 10:48 51°13.236 2°51.444 2.9 27 10.3 102610 93
2009-04-22 10:49 51°13.246 2°51.477 3.4 30 10.4 102620 94
2009-04-22 10:50 51°13.255 2°51.51 3.4 27 10.4 102610 94
2009-04-22 10:51 51°13.264 2°51.545 3.6 29 10.4 102610 93
2009-04-22 10:52 51°13.273 2°51.578 3 27 10.4 102610 93
2009-04-22 10:53 51°13.283 2°51.61 3.1 26 10.4 102610 93
2009-04-22 10:54 51°13.291 2°51.642 3.9 25 10.4 102610 94
2009-04-22 10:55 51°13.301 2°51.674 3.9 26 10.4 102610 94
2009-04-22 10:56 51°13.309 2°51.707 3.3 26 10.4 102610 93
2009-04-22 10:57 51°13.318 2°51.739 3.2 26 10.4 102610 94
2009-04-22 10:58 51°13.326 2°51.771 4 26 10.4 102610 94
2009-04-22 10:59 51°13.335 2°51.802 3.5 26 10.4 102610 93
2009-04-22 11:00 51°13.344 2°51.834 4.3 24 10.4 102610 94
2009-04-22 11:01 51°13.353 2°51.866 3.4 26 10.4 102610 93
2009-04-22 11:02 51°13.361 2°51.899 3.6 27 10.3 102610 93
2009-04-22 11:03 51°13.369 2°51.931 3.1 31 10.3 102610 93
2009-04-22 11:04 51°13.378 2°51.964 3.5 28 10.3 102610 93
2009-04-22 11:05 51°13.386 2°51.996 3.8 27 10.3 102610 94
2009-04-22 11:06 51°13.395 2°52.029 3.8 29 10.3 102610 93
2009-04-22 11:07 51°13.404 2°52.062 3.4 29 10.4 102620 94
2009-04-22 11:08 51°13.412 2°52.093 3.7 26 10.4 102610 94
2009-04-22 11:09 51°13.421 2°52.126 4.3 27 10.4 102610 94
2009-04-22 11:10 51°13.429 2°52.158 4 27 10.4 102610 94
2009-04-22 11:11 51°13.439 2°52.189 3.5 27 10.3 102610 94
2009-04-22 11:12 51°13.448 2°52.221 4.1 29 10.4 102620 94
2009-04-22 11:13 51°13.456 2°52.253 4.4 28 10.3 102620 93
2009-04-22 11:14 51°13.464 2°52.285 4.3 27 10.3 102620 93
2009-04-22 11:15 51°13.473 2°52.318 4 29 10.3 102620 93
2009-04-22 11:16 51°13.481 2°52.35 4.2 26 10.3 102620 93
2009-04-22 11:17 51°13.49 2°52.382 3.7 29 10.3 102620 94
2009-04-22 11:18 51°13.498 2°52.414 3.9 29 10.3 102610 93
2009-04-22 11:19 51°13.506 2°52.445 3.7 30 10.3 102610 94
2009-04-22 11:20 51°13.514 2°52.475 3.9 32 10.3 102610 94
2009-04-22 11:21 51°13.524 2°52.505 3.5 29 10.3 102620 94
2009-04-22 11:22 51°13.531 2°52.535 3.7 27 10.3 102610 94
2009-04-22 11:23 51°13.539 2°52.565 4.4 24 10.4 102610 94
2009-04-22 11:24 51°13.548 2°52.595 4 23 10.3 102610 94
2009-04-22 11:25 51°13.556 2°52.626 3.8 27 10.3 102620 94
2009-04-22 11:26 51°13.563 2°52.657 4 29 10.3 102610 94
2009-04-22 11:27 51°13.572 2°52.688 3.9 26 10.3 102620 94
2009-04-22 11:28 51°13.58 2°52.719 4.1 29 10.2 102620 94
2009-04-22 11:29 51°13.588 2°52.75 3.9 26 10.3 102610 95
2009-04-22 11:30 51°13.596 2°52.782 3.6 26 10.3 102620 94
2009-04-22 11:31 51°13.604 2°52.811 4 26 10.3 102610 94
2009-04-22 11:32 51°13.613 2°52.761 4.7 6 10.3 102610 94
2009-04-22 11:33 51°13.604 2°52.581 4.4 12 10.2 102610 94
2009-04-22 11:34 51°13.602 2°52.476 3.7 17 10.2 102610 94
2009-04-22 11:35 51°13.614 2°52.429 4.1 15 10.2 102610 95
2009-04-22 11:36 51°13.631 2°52.41 5.1 10 10.2 102610 95
2009-04-22 11:37 51°13.649 2°52.408 3.9 7 10.2 102610 95
2009-04-22 11:38 51°13.666 2°52.416 4.6 8 10.2 102610 95
2009-04-22 11:39 51°13.68 2°52.43 4.9 9 10.2 102610 95
2009-04-22 11:40 51°13.692 2°52.446 4 8 10.1 102610 95
2009-04-22 11:41 51°13.701 2°52.466 4.4 12 10.1 102610 95
2009-04-22 11:42 51°13.71 2°52.487 4.5 15 10.1 102610 95
2009-04-22 11:43 51°13.718 2°52.511 4.1 19 10.2 102610 95
2009-04-22 11:44 51°13.725 2°52.536 4.6 21 10.3 102610 95
2009-04-22 11:45 51°13.732 2°52.563 4.4 26 10.2 102610 94
2009-04-22 11:46 51°13.739 2°52.59 3.9 28 10.2 102610 94
2009-04-22 11:47 51°13.746 2°52.619 3.7 30 10.3 102610 94
2009-04-22 11:48 51°13.76 2°52.62 3.2 4 10.3 102610 94
2009-04-22 11:49 51°13.805 2°52.611 6.4 337 10.3 102610 94
2009-04-22 11:50 51°13.875 2°52.724 6.6 320 10.3 102600 95
2009-04-22 11:51 51°13.951 2°52.969 9.8 318 10.4 102590 94
2009-04-22 11:52 51°14.031 2°53.263 8.2 320 10.5 102590 93
2009-04-22 11:53 51°14.115 2°53.569 10.8 321 10.6 102590 92
2009-04-22 11:54 51°14.203 2°53.866 10 318 10.7 102590 91
2009-04-22 11:55 51°14.279 2°54.145 7.3 315 10.7 102590 91
2009-04-22 11:56 51°14.35 2°54.411 9.2 316 10.8 102590 91
2009-04-22 11:57 51°14.406 2°54.67 8.3 28 10.8 102580 90
2009-04-22 11:58 51°14.397 2°54.929 5.7 25 10.7 102590 90
2009-04-22 11:59 51°14.323 2°55.131 3.4 27 10.7 102600 91
2009-04-22 12:00 51°14.261 2°55.247 2.6 251 10.9 102600 91
2009-04-22 12:01 51°14.215 2°55.313 1.9 265 11 102610 92
2009-04-22 12:02 51°14.178 2°55.36 2.6 270 11.1 102600 91
2009-04-22 12:03 51°14.142 2°55.404 2.4 21 11.1 102610 90
2009-04-22 12:04 51°14.087 2°55.448 1.4 26 11.1 102610 89
2009-04-22 12:05 51°13.998 2°55.507 0.9 262 11.1 102600 89
2009-04-22 12:06 51°13.898 2°55.577 1.7 253 11.2 102600 90
2009-04-22 12:07 51°13.8 2°55.658 1.6 263 11.4 102600 90
2009-04-22 12:08 51°13.737 2°55.751 2.1 23 11.4 102600 87
2009-04-22 12:09 51°13.702 2°55.826 1.9 30 11.5 102600 88
2009-04-22 12:10 51°13.68 2°55.902 2.1 252 11.6 102600 87
2009-04-22 12:11 51°13.665 2°55.952 3.6 21 11.7 102600 85
2009-04-22 12:12 51°13.662 2°55.959 3 25 11.7 102600 84